Mountain Home, AR

5:27 AM CDT on October 19, 2019 (GMT -0500)
Baxter County Regional

Weather History for KBPK - August, 2019

Change the Weather History Date:

Saturday, August 24, 2019

  Actual Average (KFLP) Record (KFLP)
Temperature  
Mean Temperature 68 °F -  
Max Temperature 72 °F 88 °F 98 °F (1998)
Min Temperature 64 °F 65 °F 57 °F (2017)
Cooling Degree Days 3    
Growing Degree Days 18 (Base 50)    
Moisture  
Dew Point 67 °F    
Average Humidity 99    
Maximum Humidity 100    
Minimum Humidity 93    
Precipitation  
Precipitation 1.67 in - - ()
Sea Level Pressure  
Sea Level Pressure 30.05 in    
Wind  
Wind Speed 7 mph (East)    
Max Wind Speed 12 mph    
Max Gust Speed -    
Visibility 6 miles    
Events Rain , Thunderstorm    
Averages and records for this station are not official NWS values.
T = Trace of Precipitation, MM = Missing Value Source: NWS Daily Summary

Daily Weather History Graph

Daily Weather History Graph

Search for Another Location

Airport or City:

Astronomy

Aug. 24, 2019 Rise Set
Actual Time 6:34 AM CDT 7:49 PM CDT
Civil Twilight 6:08 AM CDT 8:15 PM CDT
Nautical Twilight 5:36 AM CDT 8:47 PM CDT
Astronomical Twilight 5:02 AM CDT 9:20 PM CDT
Moon 12:31 AM CDT (8/24) 3:00 PM CDT (8/24)
Length of Visible Light 14h 07m
Length of Day
13h 14m
Last Quarter, 39% of the Moon is Illuminated
Aug 24
Last Quarter
Aug 30
New
Sep 5
First Quarter
Sep 13
Full
Sep 21
Last Quarter

Hourly Weather History & Observations

Time (CDT) Temp. Dew Point Humidity Pressure Visibility Wind Dir Wind Speed Gust Speed Precip Events Conditions
12:19 AM 72.0 °F 71.1 °F 97% 30.04 in 10.0 mi East 6.9 mph - N/A   Overcast
12:38 AM 72.0 °F 70.0 °F 93% 30.05 in 10.0 mi East 5.8 mph - N/A   Overcast
1:36 AM 71.1 °F 70.0 °F 96% 30.06 in 6.0 mi East 5.8 mph - 0.06 in Rain Light Rain
1:53 AM 70.0 °F 69.1 °F 97% 30.03 in 10.0 mi East 6.9 mph - 0.07 in Rain Light Rain
2:53 AM 70.0 °F 70.0 °F 100% 30.03 in 8.0 mi East 5.8 mph - 0.03 in Rain Light Rain
3:39 AM 70.0 °F 70.0 °F 100% 30.06 in 5.0 mi East 4.6 mph - 0.06 in Rain Rain
3:53 AM 69.1 °F 69.1 °F 100% 30.03 in 5.0 mi Variable 5.8 mph - 0.09 in Rain Rain
4:35 AM 69.1 °F 69.1 °F 100% 30.04 in 7.0 mi East 8.1 mph - 0.07 in Rain Light Rain
5:01 AM 69.1 °F 69.1 °F 100% 30.06 in 2.5 mi ESE 8.1 mph - 0.16 in Rain Heavy Rain
5:04 AM 69.1 °F 69.1 °F 100% 30.06 in 1.8 mi East 8.1 mph - 0.25 in Rain Heavy Rain
5:37 AM 66.0 °F 66.0 °F 100% 30.05 in 2.5 mi East 6.9 mph - 0.86 in Rain , Thunderstorm Heavy Rain
5:48 AM 66.2 °F 66.2 °F 100% 30.06 in 4.0 mi ENE 8.1 mph - 0.89 in Rain , Thunderstorm Light Rain
5:49 AM 66.0 °F 66.0 °F 100% 30.03 in 5.0 mi East 8.1 mph - 0.90 in Rain , Thunderstorm Light Rain
5:56 AM 66.0 °F 66.0 °F 100% 30.05 in 2.5 mi East 8.1 mph - 0.07 in Rain Heavy Rain
6:00 AM 66.0 °F 66.0 °F 100% 30.05 in 1.8 mi East 9.2 mph - 0.15 in Rain , Thunderstorm Heavy Rain
6:08 AM 64.9 °F 64.9 °F 100% 30.05 in 2.0 mi East 6.9 mph - 0.24 in Rain , Thunderstorm Heavy Rain
6:19 AM 64.9 °F 64.9 °F 100% 30.06 in 4.0 mi Variable 6.9 mph - 0.29 in Rain , Thunderstorm Rain
6:31 AM 64.9 °F 64.9 °F 100% 30.07 in 4.0 mi Calm Calm - 0.33 in Rain Rain
6:51 AM 64.4 °F 64.4 °F 100% 30.08 in 2.5 mi East 4.6 mph - 0.44 in Rain Heavy Rain
6:53 AM 64.9 °F 64.9 °F 100% 30.06 in 2.5 mi Variable 4.6 mph - 0.44 in Rain Heavy Rain
6:59 AM 64.9 °F 64.9 °F 100% 30.08 in 2.5 mi Variable 5.8 mph - 0.13 in Rain , Thunderstorm Heavy Thunderstorms and Rain
7:02 AM 64.9 °F 64.9 °F 100% 30.07 in 1.8 mi ENE 9.2 mph - 0.19 in Rain , Thunderstorm Heavy Thunderstorms and Rain
7:23 AM 64.9 °F 64.9 °F 100% 30.08 in 4.0 mi SE 9.2 mph - 0.37 in Rain , Thunderstorm Heavy Thunderstorms and Rain
7:37 AM 64.0 °F 64.0 °F 100% 30.07 in 5.0 mi East 11.5 mph - 0.39 in Rain , Thunderstorm Rain
7:51 AM 64.4 °F 64.4 °F 100% 30.07 in 6.0 mi Variable 4.6 mph - 0.41 in Rain Rain
8:05 AM 64.0 °F 64.0 °F 100% 30.06 in 8.0 mi East 5.8 mph - 0.01 in Rain , Thunderstorm Light Rain
8:13 AM 64.0 °F 64.0 °F 100% 30.07 in 6.0 mi East 6.9 mph - 0.04 in Rain Rain
8:22 AM 64.0 °F 64.0 °F 100% 30.07 in 6.0 mi SE 4.6 mph - 0.06 in Rain Rain
8:53 AM 64.0 °F 64.0 °F 100% 30.06 in 8.0 mi East 6.9 mph - 0.10 in Rain Light Rain
9:07 AM 64.0 °F 64.0 °F 100% 30.07 in 10.0 mi ESE 4.6 mph - 0.01 in Rain Light Rain
9:53 AM 66.0 °F 64.9 °F 96% 30.05 in 10.0 mi ESE 9.2 mph - 0.01 in   Overcast
10:23 AM 66.0 °F 64.9 °F 96% 30.07 in 10.0 mi East 10.4 mph - N/A   Overcast
10:53 AM 66.0 °F 64.9 °F 96% 30.05 in 10.0 mi ESE 9.2 mph - N/A   Overcast
11:53 AM 66.9 °F 66.0 °F 97% 30.06 in 10.0 mi ESE 6.9 mph - N/A   Overcast
12:53 PM 68.0 °F 66.9 °F 96% 30.05 in 7.0 mi ESE 5.8 mph - 0.00 in Rain Light Rain
2:53 PM 69.1 °F 68.0 °F 96% 30.01 in 10.0 mi East 6.9 mph - 0.00 in   Overcast
3:53 PM 69.1 °F 68.0 °F 96% 30.01 in 10.0 mi SSE 6.9 mph - N/A   Overcast
5:53 PM 69.1 °F 68.0 °F 96% 29.99 in 10.0 mi East 6.9 mph - N/A   Overcast
6:53 PM 69.1 °F 68.0 °F 96% 29.99 in 9.0 mi ESE 6.9 mph - N/A   Overcast
7:53 PM 68.0 °F 68.0 °F 100% 30.01 in 2.5 mi ESE 4.6 mph - N/A   Overcast
8:33 PM 68.0 °F 68.0 °F 100% 30.04 in 3.0 mi ESE 6.9 mph - N/A   Overcast
8:53 PM 68.0 °F 68.0 °F 100% 30.03 in 3.0 mi ESE 4.6 mph - N/A   Overcast
9:22 PM 68.0 °F 68.0 °F 100% 30.05 in 5.0 mi ESE 8.1 mph - N/A   Overcast
9:34 PM 68.0 °F 68.0 °F 100% 30.06 in 10.0 mi ESE 5.8 mph - N/A   Overcast
9:53 PM 68.0 °F 68.0 °F 100% 30.04 in 7.0 mi ESE 3.5 mph - 0.03 in Rain Light Rain
10:53 PM 69.1 °F 68.0 °F 96% 30.02 in 10.0 mi Variable 3.5 mph - 0.00 in   Overcast
11:35 PM 68.0 °F 68.0 °F 100% 30.03 in 10.0 mi East 3.5 mph - 0.00 in Rain Light Rain
11:53 PM 68.0 °F 68.0 °F 100% 30.01 in 10.0 mi Calm Calm - 0.00 in   Overcast